Regional Weather Roundup
Issued by NWS Bismarck, ND

Home | Current Version | Previous Version | Text Only | Print | Product List | Glossary On
Versions: 1 2 3 4 5 6 7 8 9 10 11 12 13 14 15 16 17 18 19 20 21 22 23 24 25 26 27 28 29 30 31 32 33 34 35 36 37 38 39 40 41 42 43 44 45 46 47 48 49 50
000
ASUS43 KBIS 290910
RWRBIS

NWR BROADCAST TEXT
NATIONAL WEATHER SERVICE BISMARCK ND
400 AM CDT THU SEP 29 2016

NOTE: "FAIR" INDICATES FEW OR NO CLOUDS BELOW 12,000 FEET WITH NO
SIGNIFICANT WEATHER AND/OR OBSTRUCTIONS TO VISIBILITY.


CITY           SKY/WX    TMP DP  RH WIND       PRES   REMARKS
WILLISTON      CLEAR     54  39  57 S7        30.27F
MINOT          CLEAR     45  43  93 SE7       30.34S
MINOT AFB      NOT AVBL
BISMARCK       CLEAR     44  42  93 E5        30.38S
DICKINSON      CLEAR     46  42  86 S15       30.30S
GARRISON         N/A     46  45  96 SE6       30.35S
HETTINGER ARPT CLEAR     46  41  82 SE9       30.34F
JAMESTOWN      FOG       37  36  96 CALM      30.42R VSB 1/4
BEACH          FAIR      50  36  57 E13       30.30S
CARRINGTON     FAIR      41  41 100 SE6       30.43S
HAZEN          FAIR      37  37 100 N3        30.37S
LINTON         FAIR      43  43 100 SE8       30.41S
MANDAN         FAIR      45  43  93 SE9       30.38S
RUGBY          FAIR      48  45  87 SE10      30.39R
STANLEY        FAIR      46  46 100 SE8       30.34S
WATFORD CITY   FAIR      48  41  76 E7        30.29S HAZE
$$

CITY           SKY/WX    TMP DP  RH WIND       PRES   REMARKS
GRAND FORKS    PTCLDY    39  38  96 CALM      30.44R FOG
GRAND FORKS AF NOT AVBL
DEVILS LAKE    CLEAR     48  46  93 SE6       30.42R
FARGO          FOG       41  39  93 CALM      30.44R VSB 1
CANDO          FAIR      41  41 100 SE7       30.43S
CAVALIER       FAIR      41  41 100 CALM      30.44S
GRAFTON        FAIR      43  43 100 E6        30.46R
GWINNER          N/A     41  41 100 CALM      30.43R VSB<1/4
LANGDON        FAIR      39  39 100 SE5       30.43R
ROLLA          FAIR      45  45 100 S7        30.41S
WALHALLA       FAIR      39  39 100 CALM      30.44S
$$

CITY           SKY/WX    TMP DP  RH WIND       PRES   REMARKS
ABERDEEN       CLOUDY    39  37  92 CALM      30.42R
MOBRIDGE       CLEAR     48  43  82 S8        30.36S
BUFFALO          N/A     50  36  58 SE13      30.24F
RAPID CITY     CLEAR     43  35  73 SE6       30.32F
GLASGOW        CLEAR     56  50  80 E14       30.13F
SIDNEY         CLEAR     53  38  56 SE5       30.26R
WOLF POINT     CLEAR     58  46  64 NE7       30.19R
GLENDIVE       CLEAR     58  38  47 SE14G20   30.24S
MILES CITY     CLEAR     60  43  53 SE15      30.18S
BAKER          CLEAR     51  35  54 SE17      30.26F
$$

CITY           SKY/WX    TMP DP  RH WIND       PRES   REMARKS
BILLINGS       CLEAR     54  50  86 SW8       30.14F
GREAT FALLS    CLEAR     44  41  89 S6        30.12F
REGINA         MOCLDY    54  41  62 SE17      30.21F
ESTEVAN        PTCLDY    45  43  93 E3        30.29R
$$





USA.gov is the U.S. government's official web portal to all federal, state and local government web resources and services.